*** The Vicarage Weather Feed ***

NOAA NWS Hourly Roundups by Site

Regional Weather Roundup for Omaha, NE

To Select Another Site Choose from List

Select Site:  

000
ASUS43 KOAX 211610
RWRNE

WEATHER ROUNDUP FOR NEBRASKA
NATIONAL WEATHER SERVICE OMAHA NE
1100 AM CDT SUN OCT 21 2018

NOTES: SATELLITE DATA IS BEING USED TO AUGMENT CLOUD COVER ABOVE
       12000 FEET.
       "FAIR" INDICATES FEW OR NO CLOUDS BELOW 12,000 FEET WITH NO
       SIGNIFICANT WEATHER AND/OR OBSTRUCTIONS TO VISIBILITY.


NEZ001>004-019>022-054>056-211700-
NEBRASKA PANHANDLE

CITY           SKY/WX    TMP DP  RH WIND       PRES   REMARKS
SCOTTSBLUFF    FAIR      54  38  54 NW7       30.15F
ALLIANCE       FAIR      60  36  40 W9        30.11F
CHADRON        FAIR      59  35  40 CALM      30.13R
GORDON         FAIR      60  35  40 NW6       30.09F
KIMBALL        FAIR      65  28  25 W14       30.19S
SIDNEY         FAIR      66  33  29 W13       30.15F
$$

NEZ057>060-069>072-079>082-211700-
SOUTHWEST NEBRASKA

CITY           SKY/WX    TMP DP  RH WIND       PRES   REMARKS
NORTH PLATTE   FAIR      56  38  50 VRB5      30.13F
IMPERIAL       FAIR      56  34  43 SW5       30.14F
LEXINGTON      FAIR      56  39  53 SW9       30.14F
MCCOOK         FAIR      55  38  52 SW8       30.16F
OGALLALA       FAIR      52  36  53 CALM      30.12F
$$

NEZ005>010-023>029-035>040-094-211700-
NORTH CENTRAL NEBRASKA

CITY           SKY/WX    TMP DP  RH WIND       PRES   REMARKS
VALENTINE      FAIR      65  36  34 W8        30.06R
AINSWORTH      FAIR      58  36  42 W8        30.06S
BROKEN BOW     FAIR      56  38  50 SW12      30.10F
O`NEILL        FAIR      56  35  45 SW10G18   30.06F
ORD            FAIR      54  38  54 SW10      30.09F
THEDFORD       FAIR      62  36  38 W6        30.09F
$$

NEZ041-046>049-061>064-073>077-083>087-211700-
SOUTH CENTRAL NEBRASKA

CITY           SKY/WX    TMP DP  RH WIND       PRES   REMARKS
GRAND ISLAND   SUNNY     55  35  47 SW16G29   30.15F
AURORA         SUNNY     54  33  46 SW17G24   30.15F
HASTINGS       SUNNY     54  36  50 S14G26    30.17F
HEBRON         SUNNY     55  32  42 S15G29    30.21F
HOLDREGE       SUNNY     54  40  57 SW14G22   30.16F
KEARNEY        SUNNY     55  38  52 SW16      30.15F
YORK           SUNNY     54  32  43 SW22G30   30.17F
$$

NEZ011>018-030>034-042>045-211700-
NORTHEAST NEBRASKA

CITY           SKY/WX    TMP DP  RH WIND       PRES   REMARKS
NORFOLK        SUNNY     53  32  44 SW21G32   30.08F
ALBION         SUNNY     54  35  48 SW17      30.11F
BLAIR          SUNNY     49  30  47 S16G23    30.17F
COLUMBUS       SUNNY     54  32  43 S23G29    30.14F
FREMONT        SUNNY     51  30  44 S17       30.18F
TEKAMAH        SUNNY     50  32  50 S16G29    30.17F
WAYNE          SUNNY     52  22  30 SW28G35   30.08F
$$

NEZ050>053-065>068-078-088>093-211700-
SOUTHEAST NEBRASKA

CITY           SKY/WX    TMP DP  RH WIND       PRES   REMARKS
LINCOLN        SUNNY     52  31  44 S20G28    30.20F
OMAHA EPPLEY   SUNNY     49  28  44 S18       30.20F
BEATRICE       SUNNY     53  33  47 S16G25    30.24F
FALLS CITY     SUNNY     48  30  49 S14G23    30.28F
NEBRASKA CITY  SUNNY     49  24  37 S17G25    30.25F
PLATTSMOUTH    SUNNY     49  32  51 S16G25    30.22F
$$

NEZ044-045-051>053-067-211700-
OMAHA AREA

CITY           SKY/WX    TMP DP  RH WIND       PRES   REMARKS
OMAHA EPPLEY   SUNNY     49  28  44 S18       30.20F
BLAIR          SUNNY     49  30  47 S16G23    30.17F
FREMONT        SUNNY     51  30  44 S17       30.18F
MILLARD        SUNNY     50  32  50 S12G20    30.21F
OFFUTT AFB     SUNNY     49  29  47 S18G25    30.21F
PLATTSMOUTH    SUNNY     49  32  51 S16G25    30.22F
WAHOO          FAIR      51  32  49 S15       30.17F
$$


 

View Past Reports for Omaha, NE.

Products Courtesy of NOAA-NWS
NWS Information Parsing Script by Ken True at Saratoga Weather - Script by SE Lincoln Weather.

This data is offered only as a general guide to local weather conditions. It should not be relied upon in lieu of officially disseminated weather information for determining possible risk to persons or property. This site, including all information contained therein, is made available as is without warranties of any kind, either express or implied. The Vicarage Weather Feed© includes links to other sites for user convenience only. The content of any linked third-party site is not controlled by The Vicarage Weather Feed©. Access to any third-party website through The Vicarage Weather Feed©, regardless of whether or not the third-party site is a linked site, is entirely at the users own risk. Externally sourced content or material is excluded from The Vicarage Weather Feed© copyright and is the copyright and property of the respective provider. Skywarn® and the Skywarn® logo are registered trademarks of the National Oceanic and Atmospheric Administration, used with permission.